This is the latest recevied weather packets stored in our database for station/object DL9CN-10. If no packets are shown the sender has not sent any weather packets the latest 10 day(s).
| Time | Temp. | Humidity | Pressure | Rain* | Wind** | Luminosity | Snow |
|---|---|---|---|---|---|---|---|
| 1777879373 | 17.22° C | 47% | 1016 hPa | - | - | - | - |
| 1777878473 | 16.67° C | 47% | 1015.9 hPa | - | - | - | - |
| 1777877572 | 16.67° C | 46% | 1015.9 hPa | - | - | - | - |
| 1777876672 | 16.67° C | 46% | 1015.7 hPa | - | - | - | - |
| 1777875772 | 16.67° C | 45% | 1015.6 hPa | - | - | - | - |
| 1777874872 | 16.67° C | 45% | 1015.7 hPa | - | - | - | - |
| 1777873972 | 16.11° C | 45% | 1015.8 hPa | - | - | - | - |
| 1777873072 | 16.11° C | 44% | 1015.8 hPa | - | - | - | - |
| 1777872172 | 16.11° C | 44% | 1015.8 hPa | - | - | - | - |
| 1777871272 | 16.11° C | 43% | 1015.7 hPa | - | - | - | - |
| 1777870371 | 16.11° C | 42% | 1015.7 hPa | - | - | - | - |
| 1777869471 | 16.11° C | 42% | 1015.6 hPa | - | - | - | - |
| 1777868576 | 16.67° C | 42% | 1015.7 hPa | - | - | - | - |
| 1777867676 | 16.67° C | 42% | 1015.7 hPa | - | - | - | - |
| 1777866776 | 16.67° C | 41% | 1015.6 hPa | - | - | - | - |
| 1777865876 | 17.22° C | 41% | 1015.7 hPa | - | - | - | - |
| 1777864976 | 17.22° C | 41% | 1015.7 hPa | - | - | - | - |
| 1777864076 | 17.78° C | 41% | 1015.8 hPa | - | - | - | - |
| 1777863175 | 17.78° C | 41% | 1015.7 hPa | - | - | - | - |
| 1777862275 | 17.78° C | 41% | 1015.8 hPa | - | - | - | - |
| 1777861374 | 18.33° C | 40% | 1015.7 hPa | - | - | - | - |
| 1777860474 | 18.33° C | 40% | 1015.7 hPa | - | - | - | - |
| 1777859574 | 18.89° C | 40% | 1015.9 hPa | - | - | - | - |
| 1777858674 | 18.89° C | 40% | 1015.9 hPa | - | - | - | - |
| 1777856874 | 19.44° C | 39% | 1015.8 hPa | - | - | - | - |
* Rain since midnight (hover to see other rain measurements)
** Current wind speed in m/s (hover to see current wind gust speed)